| time (UTC) | temp C | wind direction | speed KPH | gust KPH | rain 1hr cm | rain 24hr cm | rain mn cm | humidity % | barometer mb |
| 20260506160030 | 10 | 48 | 0.0 | 0.0 | 0.00 | 0.05 | 0.00 | 63 | 1012.1 |
| 20260506154530 | 10 | 74 | 0.0 | 0.0 | 0.00 | 0.05 | 0.00 | 64 | 1012.1 |
| 20260506153040 | 10 | 125 | 0.0 | 0.0 | 0.00 | 0.05 | 0.00 | 63 | 1012.1 |
| 20260506151528 | 10 | 128 | 0.0 | 0.0 | 0.00 | 0.05 | 0.00 | 63 | 1011.9 |
| 20260506150027 | 10 | 95 | 0.0 | 0.0 | 0.00 | 0.05 | 0.00 | 62 | 1011.6 |
| 20260506144537 | 10 | 40 | 0.0 | 0.0 | 0.00 | 0.05 | 0.00 | 64 | 1011.7 |
| 20260506143023 | 10 | 38 | 0.0 | 0.0 | 0.00 | 0.05 | 0.00 | 63 | 1011.8 |
| 20260506141520 | 10 | 43 | 0.0 | 0.0 | 0.00 | 0.05 | 0.00 | 64 | 1011.6 |
| 20260506140026 | 10 | 38 | 0.0 | 0.0 | 0.00 | 0.05 | 0.00 | 64 | 1011.5 |
| 20260506134516 | 10 | 348 | 0.0 | 0.0 | 0.00 | 0.05 | 0.00 | 64 | 1011.1 |
| 20260506133013 | 9 | 29 | 0.0 | 0.0 | 0.00 | 0.05 | 0.00 | 61 | 1011.1 |
| 20260506131511 | 9 | 25 | 0.0 | 0.0 | 0.00 | 0.05 | 0.00 | 63 | 1010.7 |
| 20260506130010 | 8 | 69 | 0.0 | 0.0 | 0.00 | 0.05 | 0.00 | 62 | 1010.6 |
| 20260506124507 | 8 | 88 | 0.0 | 0.0 | 0.00 | 0.05 | 0.00 | 65 | 1010.3 |
| 20260506123006 | 8 | 34 | 0.0 | 0.0 | 0.00 | 0.05 | 0.00 | 69 | 1010.2 |
| 20260506121505 | 8 | 49 | 0.0 | 0.0 | 0.00 | 0.05 | 0.00 | 69 | 1010.3 |
| 20260506120004 | 8 | 40 | 0.0 | 0.0 | 0.00 | 0.05 | 0.00 | 72 | 1010.1 |
| 20260506114500 | 8 | 40 | 0.0 | 0.0 | 0.00 | 0.05 | 0.00 | 72 | 1009.8 |
| 20260506113100 | 8 | 50 | 0.0 | 0.0 | 0.00 | 0.05 | 0.00 | 73 | 1009.5 |
| 20260506111557 | 8 | 40 | 0.0 | 0.0 | 0.00 | 0.05 | 0.00 | 75 | 1009.4 |
| 20260506110055 | 8 | 53 | 0.0 | 0.0 | 0.00 | 0.05 | 0.00 | 74 | 1009.1 |
| 20260506104600 | 8 | 58 | 0.0 | 0.0 | 0.00 | 0.05 | 0.00 | 73 | 1008.9 |
| 20260506103049 | 8 | 51 | 0.0 | 0.0 | 0.00 | 0.05 | 0.00 | 71 | 1008.5 |
| 20260506101548 | 9 | 51 | 0.0 | 0.0 | 0.00 | 0.05 | 0.00 | 67 | 1008.3 |
| 20260506100104 | 9 | 34 | 0.0 | 0.0 | 0.00 | 0.05 | 0.00 | 66 | 1008.2 |
| 20260506094552 | 9 | 236 | 0.0 | 0.0 | 0.00 | 0.05 | 0.00 | 66 | 1008.1 |
| 20260506093047 | 9 | 237 | 0.0 | 0.0 | 0.00 | 0.05 | 0.00 | 66 | 1008.1 |
| 20260506091547 | 9 | 236 | 0.0 | 0.0 | 0.00 | 0.05 | 0.00 | 66 | 1007.8 |
| 20260506090045 | 9 | 236 | 0.0 | 0.0 | 0.00 | 0.05 | 0.00 | 67 | 1007.8 |
| 20260506084551 | 9 | 236 | 0.0 | 0.0 | 0.00 | 0.05 | 0.00 | 70 | 1008.1 |
| 20260506083046 | 9 | 234 | 0.0 | 0.0 | 0.00 | 0.05 | 0.00 | 75 | 1007.7 |
| 20260506081554 | 8 | 230 | 0.0 | 0.0 | 0.00 | 0.05 | 0.00 | 81 | 1007.7 |
| 20260506073038 | 8 | 229 | 0.0 | 0.0 | 0.00 | 0.05 | 0.00 | 83 | 1007.7 |
| 20260506071542 | 8 | 229 | 0.0 | 0.0 | 0.00 | 0.05 | 0.00 | 83 | 1007.7 |
| 20260506061538 | 8 | 229 | 0.0 | 0.0 | 0.00 | 0.05 | 0.00 | 83 | 1008.1 |
| 20260506044543 | 9 | 240 | 0.0 | 0.0 | 0.00 | 0.10 | 0.00 | 81 | 1008.1 |
| 20260506043027 | 9 | 240 | 0.0 | 0.0 | 0.00 | 0.10 | 0.00 | 80 | 1008.2 |
| 20260506041526 | 9 | 242 | 0.0 | 0.0 | 0.00 | 0.10 | 0.00 | 81 | 1007.9 |
| 20260506040023 | 8 | 242 | 0.0 | 0.0 | 0.00 | 0.10 | 0.00 | 80 | 1007.9 |
| 20260506034522 | 9 | 242 | 0.0 | 0.0 | 0.00 | 0.10 | 0.10 | 80 | 1007.8 |
| 20260506033026 | 9 | 242 | 0.0 | 0.0 | 0.03 | 0.10 | 0.10 | 79 | 1008.1 |
| 20260506031537 | 9 | 242 | 0.0 | 0.0 | 0.03 | 0.10 | 0.10 | 78 | 1008.1 |
| 20260506030016 | 10 | 262 | 0.0 | 0.0 | 0.03 | 0.10 | 0.10 | 75 | 1008.3 |
| 20260506024517 | 10 | 360 | 0.0 | 0.0 | 0.03 | 0.10 | 0.10 | 68 | 1008.2 |
| 20260506023010 | 10 | 360 | 0.0 | 0.0 | 0.00 | 0.08 | 0.08 | 65 | 1008.1 |
| 20260506021507 | 11 | 360 | 0.0 | 0.0 | 0.00 | 0.08 | 0.08 | 63 | 1007.9 |
| 20260506020004 | 11 | 360 | 0.0 | 0.0 | 0.00 | 0.08 | 0.08 | 59 | 1007.9 |
| 20260506014501 | 12 | 360 | 0.0 | 0.0 | 0.00 | 0.08 | 0.08 | 57 | 1007.7 |
| 20260506013110 | 12 | 5 | 0.0 | 0.0 | 0.00 | 0.08 | 0.08 | 58 | 1007.4 |
| 20260506011601 | 12 | 5 | 0.0 | 0.0 | 0.00 | 0.08 | 0.08 | 57 | 1007.2 |
| 20260506010119 | 12 | 350 | 0.0 | 0.0 | 0.00 | 0.08 | 0.08 | 59 | 1007.2 |
| 20260506004557 | 12 | 350 | 0.0 | 0.0 | 0.00 | 0.20 | 0.08 | 58 | 1007.3 |
| 20260506003112 | 12 | 355 | 0.0 | 0.0 | 0.00 | 0.20 | 0.08 | 57 | 1007.3 |
| 20260506001602 | 12 | 294 | 0.0 | 0.0 | 0.00 | 0.20 | 0.08 | 63 | 1007.1 |
| 20260506000055 | 12 | 294 | 0.0 | 0.0 | 0.00 | 0.20 | 0.08 | 65 | 1006.6 |
| 20260505234553 | 13 | 275 | 0.0 | 0.0 | 0.00 | 0.20 | 0.08 | 66 | 1006.4 |
| 20260505233104 | 13 | 274 | 0.0 | 0.0 | 0.00 | 0.20 | 0.08 | 65 | 1006.3 |
| 20260505231552 | 13 | 273 | 0.0 | 0.0 | 0.00 | 0.20 | 0.08 | 66 | 1006.4 |
| 20260505230055 | 13 | 273 | 0.0 | 0.0 | 0.00 | 0.20 | 0.08 | 66 | 1006.3 |
| 20260505224551 | 13 | 273 | 0.0 | 0.0 | 0.00 | 0.20 | 0.08 | 66 | 1006.5 |
| 20260505223050 | 13 | 273 | 0.0 | 0.0 | 0.00 | 0.20 | 0.08 | 67 | 1006.5 |
| 20260505221551 | 13 | 272 | 0.0 | 0.0 | 0.00 | 0.20 | 0.08 | 68 | 1006.6 |
| 20260505220049 | 13 | 270 | 0.0 | 0.0 | 0.00 | 0.20 | 0.08 | 68 | 1006.7 |
| 20260505214559 | 13 | 259 | 0.0 | 0.0 | 0.00 | 0.20 | 0.08 | 68 | 1006.6 |
| 20260505213048 | 13 | 246 | 0.0 | 0.0 | 0.00 | 0.20 | 0.08 | 69 | 1006.5 |
| 20260505211548 | 13 | 246 | 0.0 | 0.0 | 0.00 | 0.20 | 0.08 | 69 | 1006.4 |
| 20260505210047 | 13 | 242 | 0.0 | 0.0 | 0.00 | 0.20 | 0.08 | 69 | 1006.5 |
| 20260505204547 | 13 | 265 | 0.0 | 0.0 | 0.00 | 0.20 | 0.08 | 69 | 1006.6 |
| 20260505203047 | 13 | 238 | 0.0 | 0.0 | 0.00 | 0.20 | 0.08 | 69 | 1006.6 |
| 20260505201552 | 12 | 235 | 0.0 | 0.0 | 0.00 | 0.20 | 0.08 | 69 | 1006.7 |
| 20260505200045 | 12 | 319 | 0.0 | 0.0 | 0.00 | 0.20 | 0.08 | 70 | 1006.8 |
| 20260505194545 | 12 | 317 | 0.0 | 0.0 | 0.00 | 0.20 | 0.08 | 69 | 1006.6 |
| 20260505193045 | 13 | 246 | 0.0 | 0.0 | 0.00 | 0.20 | 0.08 | 69 | 1006.8 |
| 20260505191555 | 13 | 296 | 0.0 | 0.0 | 0.00 | 0.20 | 0.08 | 66 | 1007.0 |
| 20260505190055 | 13 | 306 | 0.0 | 0.0 | 0.00 | 0.20 | 0.08 | 66 | 1006.9 |
| 20260505184545 | 13 | 300 | 0.0 | 0.0 | 0.00 | 0.20 | 0.08 | 69 | 1006.9 |
| 20260505183107 | 13 | 290 | 0.0 | 0.0 | 0.00 | 0.20 | 0.08 | 72 | 1006.7 |
| 20260505181540 | 13 | 311 | 0.0 | 0.0 | 0.03 | 0.20 | 0.08 | 74 | 1006.6 |
| 20260505180042 | 12 | 315 | 0.0 | 0.0 | 0.03 | 0.20 | 0.08 | 77 | 1006.6 |
| 20260505174538 | 12 | 5 | 0.0 | 0.0 | 0.03 | 0.20 | 0.08 | 78 | 1006.4 |
| 20260505173046 | 12 | 355 | 0.0 | 0.0 | 0.03 | 0.20 | 0.08 | 77 | 1006.5 |
| 20260505171543 | 13 | 9 | 0.0 | 0.0 | 0.00 | 0.18 | 0.05 | 73 | 1006.1 |
| 20260505170031 | 13 | 316 | 0.0 | 0.0 | 0.00 | 0.18 | 0.05 | 67 | 1006.0 |
| 20260505164526 | 15 | 325 | 0.0 | 0.0 | 0.00 | 0.18 | 0.05 | 59 | 1006.1 |
| 20260505163023 | 15 | 308 | 0.0 | 0.0 | 0.00 | 0.18 | 0.05 | 54 | 1006.1 |
| 20260505161521 | 16 | 319 | 0.0 | 0.0 | 0.00 | 0.18 | 0.05 | 55 | 1005.9 |